Location: Elaine Barite Prospect
(34.1431°N, 106.7922°W)
Time: 12:14:07
(UTC+00:00)

Cosmos 2151 - Pass Details

Date: 13 December 2025
Orbit: 559 x 575 km, 82.5° (Epoch: 15 January)

Event Time Altitude Azimuth Distance (km) Brightness Sun altitude
Rises 13:27:06 0° 203° (SSW) 2,732 6.4 -7.8°
Reaches altitude 10° 13:29:23 10° 212° (SSW) 1,843 5.4 -7.4°
Maximum altitude 13:33:09 37° 280° (W) 884 3.4 -6.7°
Drops below altitude 10° 13:36:58 10° 349° (NNW) 1,862 5.2 -6.0°
Sets 13:39:17 0° 357° (N) 2,765 6.1 -5.5°
